Hinckley, MN

2:43 PM CDT on July 21, 2017 (GMT -0500)
Hinckley

Weather History for K04W - November, 2013

Change the Weather History Date:

Tuesday, November 26, 2013

  Actual Average (KJMR) Record (KJMR)
Temperature  
Mean Temperature 19 °F -  
Max Temperature 28 °F 32 °F 57 °F (1998)
Min Temperature 10 °F 14 °F -16 °F (1977)
Degree Days  
Heating Degree Days 46    
Moisture  
Dew Point 8 °F    
Average Humidity 65    
Maximum Humidity 86    
Minimum Humidity 49    
Precipitation  
Precipitation 0.00 in - - ()
Sea Level Pressure  
Sea Level Pressure 30.20 in    
Wind  
Wind Speed 9 mph (NW)    
Max Wind Speed 22 mph    
Max Gust Speed 33 mph    
Visibility 10 miles    
Events Snow    
Averages and records for this station are not official NWS values.
T = Trace of Precipitation, MM = Missing Value Source: NWS Daily Summary

Daily Weather History Graph

Daily Weather History Graph

Search for Another Location

Airport or City:

Trip Planner

Search our weather history database for the weather conditions in past years. The results will help you decide how hot, cold, wet, or windy it might be!

Date:

Astronomy

Nov. 26, 2013 Rise Set
Actual Time 7:27 AM CST 4:30 PM CST
Civil Twilight 6:53 AM CST 5:03 PM CST
Nautical Twilight 6:16 AM CST 5:40 PM CST
Astronomical Twilight 5:40 AM CST 6:16 PM CST
Moon 12:10 AM CST (11/26) 12:56 PM CST (11/26)
Length of Visible Light 10h 10m
Length of Day
9h 03m
Last Quarter, 41% of the Moon is Illuminated
Nov 26
Last Quarter
Dec 2
New
Dec 9
First Quarter
Dec 17
Full
Dec 25
Last Quarter

Hourly Weather History & Observations

Time (CST) Temp. Windchill Dew Point Humidity Pressure Visibility Wind Dir Wind Speed Gust Speed Precip Events Conditions
12:01 AM 28.4 °F 19.1 °F 15.8 °F 59% 30.04 in 10.0 mi NW 10.4 mph 18.4 mph N/A   Overcast
12:21 AM 26.6 °F 17.5 °F 15.8 °F 64% 30.05 in 10.0 mi WNW 9.2 mph - N/A Snow Light Snow
12:41 AM 26.6 °F 19.1 °F 15.8 °F 64% 30.05 in 10.0 mi NW 6.9 mph - N/A   Overcast
1:01 AM 26.6 °F 20.0 °F 15.8 °F 64% 30.05 in 10.0 mi NW 5.8 mph - N/A   Overcast
1:21 AM 26.6 °F 19.1 °F 17.6 °F 69% 30.05 in 10.0 mi NW 6.9 mph - N/A   Overcast
1:41 AM 26.6 °F 20.0 °F 17.6 °F 69% 30.05 in 10.0 mi NW 5.8 mph - N/A   Overcast
2:01 AM 26.6 °F 19.1 °F 19.4 °F 74% 30.05 in 5.0 mi NW 6.9 mph - N/A Snow Light Snow
2:21 AM 24.8 °F - 19.4 °F 80% 30.05 in 10.0 mi Calm Calm - N/A   Overcast
2:41 AM 26.6 °F - 19.4 °F 74% 30.04 in 10.0 mi Calm Calm - N/A   Overcast
3:01 AM 26.6 °F 21.2 °F 19.4 °F 74% 30.05 in 10.0 mi West 4.6 mph - N/A Snow Light Snow
3:21 AM 26.6 °F 20.0 °F 19.4 °F 74% 30.04 in 10.0 mi West 5.8 mph - N/A   Overcast
3:41 AM 26.6 °F 19.1 °F 19.4 °F 74% 30.04 in 7.0 mi WNW 6.9 mph - N/A Snow Light Snow
4:00 AM 26.6 °F 16.8 °F 19.4 °F 74% 30.04 in 10.0 mi WNW 10.4 mph 16.1 mph N/A   Overcast
4:21 AM 23.0 °F 11.7 °F 19.4 °F 86% 30.04 in 4.0 mi NNW 11.5 mph - N/A Snow Light Snow
4:41 AM 23.0 °F 12.4 °F 19.4 °F 86% 30.05 in 2.5 mi NW 10.4 mph - N/A Snow Light Snow
5:01 AM 23.0 °F 10.1 °F 17.6 °F 80% 30.06 in 10.0 mi NW 15.0 mph 23.0 mph N/A Snow Light Snow
5:21 AM 21.2 °F 5.6 °F 12.2 °F 68% 30.07 in 10.0 mi NW 20.7 mph 26.5 mph N/A   Overcast
5:41 AM 19.4 °F 3.2 °F 8.6 °F 63% 30.09 in 10.0 mi NW 20.7 mph 33.4 mph N/A   Mostly Cloudy
6:01 AM 17.6 °F 2.7 °F 6.8 °F 63% 30.11 in 10.0 mi NW 16.1 mph 26.5 mph N/A   Scattered Clouds
6:21 AM 17.6 °F 5.7 °F 6.8 °F 63% 30.12 in 10.0 mi NW 10.4 mph 16.1 mph N/A   Clear
6:41 AM 15.8 °F 2.7 °F 5.0 °F 62% 30.12 in 10.0 mi NW 11.5 mph 18.4 mph N/A   Clear
7:01 AM 15.8 °F 3.4 °F 5.0 °F 62% 30.13 in 10.0 mi NW 10.4 mph 17.3 mph N/A   Clear
7:21 AM 14.0 °F 3.9 °F 5.0 °F 67% 30.13 in 10.0 mi WNW 6.9 mph - N/A   Clear
7:41 AM 14.0 °F 2.9 °F 5.0 °F 67% 30.15 in 10.0 mi WNW 8.1 mph - N/A   Clear
8:01 AM 14.0 °F 3.9 °F 5.0 °F 67% 30.16 in 10.0 mi WNW 6.9 mph - N/A   Clear
8:21 AM 14.0 °F 2.9 °F 5.0 °F 67% 30.16 in 10.0 mi WNW 8.1 mph - N/A   Clear
8:41 AM 15.8 °F 4.2 °F 5.0 °F 62% 30.17 in 10.0 mi WNW 9.2 mph - N/A   Clear
9:01 AM 15.8 °F 2.7 °F 5.0 °F 62% 30.17 in 10.0 mi WNW 11.5 mph 18.4 mph N/A   Clear
9:21 AM 17.6 °F 5.0 °F 5.0 °F 58% 30.18 in 10.0 mi WNW 11.5 mph 19.6 mph N/A   Clear
9:41 AM 17.6 °F 2.7 °F 6.8 °F 63% 30.18 in 10.0 mi NW 16.1 mph 20.7 mph N/A   Scattered Clouds
10:01 AM 17.6 °F 4.3 °F 6.8 °F 63% 30.19 in 10.0 mi NW 12.7 mph 20.7 mph N/A   Mostly Cloudy
10:21 AM 17.6 °F 5.0 °F 10.4 °F 73% 30.20 in 3.0 mi NW 11.5 mph 20.7 mph N/A Snow Light Snow
10:41 AM 17.6 °F 2.2 °F 8.6 °F 68% 30.20 in 5.0 mi NNW 17.3 mph 21.9 mph N/A   Haze
11:01 AM 17.6 °F 0.5 °F 5.0 °F 58% 30.21 in 10.0 mi NNW 21.9 mph 28.8 mph N/A   Mostly Cloudy
11:21 AM 17.6 °F 1.7 °F 3.2 °F 53% 30.21 in 10.0 mi NNW 18.4 mph 26.5 mph N/A   Scattered Clouds
11:41 AM 17.6 °F 3.7 °F 3.2 °F 53% 30.22 in 10.0 mi NW 13.8 mph 26.5 mph N/A   Mostly Cloudy
12:01 PM 19.4 °F 6.0 °F 5.0 °F 54% 30.22 in 10.0 mi NNW 13.8 mph 21.9 mph N/A   Overcast
12:21 PM 19.4 °F 7.2 °F 5.0 °F 54% 30.22 in 10.0 mi NW 11.5 mph 20.7 mph N/A   Overcast
12:41 PM 17.6 °F 4.3 °F 5.0 °F 58% 30.22 in 10.0 mi NNW 12.7 mph 19.6 mph N/A   Overcast
1:01 PM 17.6 °F 5.0 °F 5.0 °F 58% 30.22 in 10.0 mi WNW 11.5 mph 16.1 mph N/A   Mostly Cloudy
1:21 PM 17.6 °F 3.7 °F 3.2 °F 53% 30.22 in 10.0 mi NNW 13.8 mph 20.7 mph N/A   Mostly Cloudy
1:41 PM 19.4 °F 6.0 °F 5.0 °F 54% 30.22 in 10.0 mi NW 13.8 mph 18.4 mph N/A   Mostly Cloudy
2:01 PM 19.4 °F 6.0 °F 3.2 °F 49% 30.22 in 10.0 mi NW 13.8 mph 21.9 mph N/A   Mostly Cloudy
2:21 PM 19.4 °F 8.6 °F 3.2 °F 49% 30.22 in 10.0 mi WNW 9.2 mph 19.6 mph N/A   Mostly Cloudy
2:41 PM 19.4 °F 6.6 °F 5.0 °F 54% 30.23 in 10.0 mi NW 12.7 mph 18.4 mph N/A   Overcast
3:01 PM 21.2 °F 9.5 °F 5.0 °F 50% 30.23 in 10.0 mi NW 11.5 mph 19.6 mph N/A   Overcast
3:22 PM 19.4 °F 7.9 °F 5.0 °F 54% 30.23 in 10.0 mi NW 10.4 mph - N/A   Overcast
3:41 PM 19.4 °F 6.0 °F 5.0 °F 54% 30.25 in 10.0 mi NNW 13.8 mph 19.6 mph N/A   Overcast
4:01 PM 17.6 °F 5.0 °F 3.2 °F 53% 30.25 in 10.0 mi NNW 11.5 mph 20.7 mph N/A   Mostly Cloudy
4:22 PM 17.6 °F 5.0 °F 5.0 °F 58% 30.26 in 10.0 mi NNW 11.5 mph 18.4 mph N/A   Mostly Cloudy
4:41 PM 17.6 °F 6.4 °F 5.0 °F 58% 30.27 in 10.0 mi NNW 9.2 mph - N/A   Mostly Cloudy
5:01 PM 17.6 °F 5.7 °F 5.0 °F 58% 30.28 in 10.0 mi NW 10.4 mph - N/A   Overcast
5:22 PM 17.6 °F 6.4 °F 5.0 °F 58% 30.29 in 10.0 mi NW 9.2 mph - N/A   Overcast
5:41 PM 17.6 °F 8.2 °F 5.0 °F 58% 30.30 in 10.0 mi NW 6.9 mph - N/A   Mostly Cloudy
6:01 PM 15.8 °F 5.1 °F 5.0 °F 62% 30.30 in 10.0 mi NNW 8.1 mph - N/A   Clear
6:22 PM 14.0 °F 8.2 °F 5.0 °F 67% 30.31 in 10.0 mi NW 3.5 mph - N/A   Clear
6:41 PM 14.0 °F 6.5 °F 5.0 °F 67% 30.31 in 10.0 mi NW 4.6 mph - N/A   Clear
7:01 PM 14.0 °F 5.1 °F 5.0 °F 67% 30.31 in 10.0 mi NW 5.8 mph - N/A   Clear
7:21 PM 14.0 °F 8.2 °F 5.0 °F 67% 30.32 in 10.0 mi NW 3.5 mph - N/A   Clear
7:41 PM 14.0 °F 5.1 °F 6.8 °F 73% 30.32 in 10.0 mi NW 5.8 mph - N/A   Clear
8:02 PM 14.0 °F 2.0 °F 6.8 °F 73% 30.33 in 10.0 mi NW 9.2 mph - N/A   Clear
8:21 PM 14.0 °F 3.9 °F 5.0 °F 67% 30.33 in 10.0 mi NW 6.9 mph - N/A   Clear
8:41 PM 14.0 °F 6.5 °F 5.0 °F 67% 30.32 in 10.0 mi NW 4.6 mph - N/A   Clear
9:02 PM 12.2 °F 0.7 °F 5.0 °F 73% 30.32 in 10.0 mi NNW 8.1 mph - N/A   Clear
9:21 PM 12.2 °F 0.7 °F 5.0 °F 73% 30.32 in 10.0 mi NNW 8.1 mph - N/A   Clear
9:41 PM 12.2 °F 1.7 °F 5.0 °F 73% 30.33 in 10.0 mi NNW 6.9 mph - N/A   Clear
10:02 PM 12.2 °F 0.7 °F 5.0 °F 73% 30.33 in 10.0 mi NW 8.1 mph - N/A   Clear
10:21 PM 12.2 °F -0.2 °F 5.0 °F 73% 30.33 in 10.0 mi NNW 9.2 mph - N/A   Clear
10:41 PM 12.2 °F 4.3 °F 5.0 °F 73% 30.34 in 10.0 mi North 4.6 mph - N/A   Clear
11:01 PM 12.2 °F 4.3 °F 5.0 °F 73% 30.34 in 10.0 mi North 4.6 mph - N/A   Clear
11:21 PM 10.4 °F 0.8 °F 5.0 °F 79% 30.34 in 10.0 mi NNW 5.8 mph - N/A   Clear
11:41 PM 10.4 °F 2.2 °F 5.0 °F 79% 30.34 in 10.0 mi NNW 4.6 mph - N/A   Clear